When you browse on this site, cookies collect data to enhance your experience and personalize the content and advertising you see.
Visit our Privacy Policy to learn more. By continuing to use the site, you agree to this use of cookies and data.
  • Em Portugal
  • Lista de países
  • Para 7 dias
  • Temperatura da água
  • Mapas de satélite
  • Mapa do tempo
  • Widgets de tempo
  • user-avatar
    Iniciar Sessão

    Previsão horária em Dobrzechow

    Hoje, 24 Março, Domingo

    Tempo Temperatura Precipitação Vento Pressão Humidade
    00:00 +8°C° 0 mm 1 m/s 744 mmHg 51%
    01:00 +8°C° 0 mm 1 m/s 743 mmHg 59%
    02:00 +8°C° 0 mm 1 m/s 743 mmHg 64%
    03:00 +7°C° 0 mm 2 m/s 743 mmHg 69%
    04:00 +7°C° 0 mm 2 m/s 743 mmHg 73%
    05:00 +7°C° 0.1 mm 2 m/s 743 mmHg 79%
    06:00 +7°C° 0.1 mm 3 m/s 744 mmHg 86%
    07:00 +7°C° 0.1 mm 3 m/s 744 mmHg 92%
    08:00 +8°C° 0 mm 3 m/s 744 mmHg 85%
    09:00 +8°C° 0 mm 3 m/s 744 mmHg 79%
    10:00 +9°C° 0 mm 3 m/s 744 mmHg 73%
    11:00 +10°C° 0 mm 3 m/s 743 mmHg 66%
    12:00 +11°C° 0 mm 3 m/s 743 mmHg 58%
    13:00 +12°C° 0 mm 3 m/s 743 mmHg 51%
    14:00 +12°C° 0 mm 3 m/s 742 mmHg 49%
    15:00 +13°C° 0 mm 2 m/s 742 mmHg 47%
    16:00 +13°C° 0 mm 2 m/s 741 mmHg 45%
    17:00 +12°C° 0 mm 1 m/s 741 mmHg 49%
    18:00 +10°C° 0 mm 1 m/s 740 mmHg 53%
    19:00 +8°C° 0 mm 0 m/s 740 mmHg 56%
    20:00 +8°C° 0 mm 0 m/s 740 mmHg 56%
    21:00 +9°C° 0 mm 1 m/s 739 mmHg 57%
    22:00 +9°C° 0 mm 1 m/s 739 mmHg 57%
    23:00 +8°C° 0.3 mm 1 m/s 739 mmHg 62%

    Amanhã, 25 Março, Segunda-feira

    Tempo Temperatura Precipitação Vento Pressão Humidade
    00:00 +7°C° 0.3 mm 0 m/s 738 mmHg 67%
    01:00 +7°C° 0.3 mm 0 m/s 738 mmHg 72%
    02:00 +7°C° 0.2 mm 1 m/s 737 mmHg 75%
    03:00 +7°C° 0.2 mm 1 m/s 737 mmHg 78%
    04:00 +6°C° 0.2 mm 1 m/s 736 mmHg 81%
    05:00 +6°C° 0.2 mm 1 m/s 736 mmHg 81%
    06:00 +6°C° 0.2 mm 1 m/s 736 mmHg 81%
    07:00 +6°C° 0.2 mm 1 m/s 736 mmHg 82%
    08:00 +6°C° 0 mm 2 m/s 735 mmHg 75%
    09:00 +7°C° 0 mm 2 m/s 735 mmHg 67%
    10:00 +9°C° 0 mm 3 m/s 735 mmHg 60%
    11:00 +9°C° 0 mm 3 m/s 735 mmHg 56%
    12:00 +10°C° 0 mm 4 m/s 734 mmHg 53%
    13:00 +11°C° 0 mm 4 m/s 734 mmHg 49%
    14:00 +9°C° 0.2 mm 5 m/s 734 mmHg 51%
    15:00 +8°C° 0.2 mm 5 m/s 734 mmHg 53%
    16:00 +8°C° 0.2 mm 6 m/s 733 mmHg 55%
    17:00 +7°C° 0.1 mm 5 m/s 734 mmHg 59%
    18:00 +6°C° 0.1 mm 5 m/s 734 mmHg 62%
    19:00 +5°C° 0.1 mm 4 m/s 735 mmHg 65%
    20:00 +5°C° 0 mm 4 m/s 736 mmHg 68%
    21:00 +4°C° 0 mm 4 m/s 736 mmHg 71%
    22:00 +3°C° 0 mm 4 m/s 737 mmHg 73%
    23:00 +3°C° 0 mm 4 m/s 737 mmHg 74%

    Depois de amanhã, 26 Março, Terça-feira

    Tempo Temperatura Precipitação Vento Pressão Humidade
    00:00 +1°C° 0 mm 5 m/s 738 mmHg 75%
    01:00 +1°C° 0 mm 5 m/s 738 mmHg 75%
    02:00 +1°C° 0 mm 5 m/s 739 mmHg 78%
    03:00 +1°C° 0 mm 5 m/s 739 mmHg 80%
    04:00 +1°C° 0 mm 5 m/s 740 mmHg 83%
    05:00 +1°C° 0 mm 5 m/s 740 mmHg 83%
    06:00 0°C° 0 mm 5 m/s 741 mmHg 84%
    07:00 -1°C° 0 mm 6 m/s 742 mmHg 84%
    08:00 +1°C° 0.1 mm 5 m/s 742 mmHg 79%
    09:00 +1°C° 0.1 mm 5 m/s 743 mmHg 74%
    10:00 +1°C° 0.1 mm 5 m/s 743 mmHg 70%
    11:00 +3°C° 0 mm 6 m/s 743 mmHg 63%
    12:00 +4°C° 0 mm 6 m/s 743 mmHg 57%
    13:00 +5°C° 0 mm 6 m/s 743 mmHg 51%
    14:00 +5°C° 0 mm 6 m/s 742 mmHg 49%
    15:00 +6°C° 0 mm 7 m/s 742 mmHg 47%
    16:00 +6°C° 0 mm 7 m/s 742 mmHg 45%
    17:00 +5°C° 0 mm 6 m/s 742 mmHg 50%
    18:00 +5°C° 0 mm 5 m/s 742 mmHg 55%
    19:00 +4°C° 0 mm 4 m/s 742 mmHg 60%
    20:00 +4°C° 0.1 mm 4 m/s 743 mmHg 64%
    21:00 +4°C° 0.1 mm 4 m/s 743 mmHg 68%
    22:00 +3°C° 0.1 mm 4 m/s 743 mmHg 72%
    23:00 +3°C° 0 mm 4 m/s 744 mmHg 74%

    27 Março, Quarta-feira

    Tempo Temperatura Precipitação Vento Pressão Humidade
    00:00 +2°C° 0 mm 3 m/s 744 mmHg 76%
    01:00 +2°C° 0 mm 3 m/s 745 mmHg 77%
    02:00 +1°C° 0 mm 3 m/s 745 mmHg 78%
    03:00 -1°C° 0 mm 3 m/s 745 mmHg 78%
    04:00 -2°C° 0 mm 2 m/s 745 mmHg 79%
    05:00 -2°C° 0 mm 2 m/s 746 mmHg 72%
    06:00 -1°C° 0 mm 2 m/s 746 mmHg 65%
    07:00 -1°C° 0 mm 2 m/s 746 mmHg 59%
    08:00 +1°C° 0 mm 2 m/s 747 mmHg 51%
    09:00 +2°C° 0 mm 3 m/s 747 mmHg 43%
    10:00 +3°C° 0 mm 3 m/s 747 mmHg 35%
    11:00 +4°C° 0 mm 3 m/s 747 mmHg 35%
    12:00 +5°C° 0 mm 3 m/s 747 mmHg 35%
    13:00 +7°C° 0 mm 3 m/s 747 mmHg 35%
    14:00 +7°C° 0 mm 2 m/s 747 mmHg 36%
    15:00 +7°C° 0 mm 2 m/s 747 mmHg 37%
    16:00 +7°C° 0 mm 2 m/s 747 mmHg 38%
    17:00 +7°C° 0 mm 1 m/s 747 mmHg 42%
    18:00 +6°C° 0 mm 1 m/s 747 mmHg 46%
    19:00 +5°C° 0 mm 1 m/s 748 mmHg 50%
    20:00 +4°C° 0 mm 1 m/s 748 mmHg 51%
    21:00 +3°C° 0 mm 2 m/s 748 mmHg 53%
    22:00 +2°C° 0 mm 2 m/s 748 mmHg 55%
    23:00 +2°C° 0 mm 2 m/s 748 mmHg 56%

    28 Março, Quinta-feira

    Tempo Temperatura Precipitação Vento Pressão Humidade
    00:00 +2°C° 0 mm 2 m/s 749 mmHg 57%
    01:00 +1°C° 0 mm 2 m/s 749 mmHg 59%
    02:00 +1°C° 0 mm 2 m/s 749 mmHg 60%
    03:00 +2°C° 0 mm 1 m/s 749 mmHg 62%
    04:00 +2°C° 0 mm 1 m/s 749 mmHg 63%
    05:00 +3°C° 0 mm 1 m/s 749 mmHg 62%
    06:00 +4°C° 0 mm 1 m/s 749 mmHg 60%
    07:00 +5°C° 0 mm 1 m/s 749 mmHg 59%
    08:00 +7°C° 0 mm 1 m/s 749 mmHg 56%
    09:00 +8°C° 0 mm 1 m/s 749 mmHg 53%
    10:00 +10°C° 0 mm 1 m/s 750 mmHg 50%
    11:00 +11°C° 0 mm 1 m/s 749 mmHg 48%
    12:00 +12°C° 0 mm 1 m/s 749 mmHg 47%
    13:00 +12°C° 0 mm 1 m/s 749 mmHg 45%
    14:00 +12°C° 0 mm 1 m/s 749 mmHg 47%
    15:00 +12°C° 0 mm 2 m/s 748 mmHg 49%
    16:00 +12°C° 0 mm 2 m/s 748 mmHg 50%
    17:00 +10°C° 0 mm 2 m/s 748 mmHg 56%
    18:00 +9°C° 0 mm 1 m/s 748 mmHg 62%
    19:00 +8°C° 0 mm 1 m/s 749 mmHg 68%
    20:00 +7°C° 0 mm 1 m/s 749 mmHg 70%
    21:00 +6°C° 0 mm 0 m/s 749 mmHg 72%
    22:00 +5°C° 0 mm 0 m/s 749 mmHg 74%
    23:00 +5°C° 0 mm 0 m/s 749 mmHg 74%

    29 Março, Sexta-feira

    Tempo Temperatura Precipitação Vento Pressão Humidade
    00:00 +6°C° 0 mm 1 m/s 749 mmHg 74%
    01:00 +7°C° 0 mm 1 m/s 749 mmHg 74%
    02:00 +6°C° 0 mm 1 m/s 749 mmHg 78%
    03:00 +5°C° 0 mm 1 m/s 749 mmHg 82%
    04:00 +4°C° 0 mm 1 m/s 749 mmHg 86%
    05:00 +5°C° 0 mm 1 m/s 749 mmHg 84%
    06:00 +6°C° 0 mm 1 m/s 749 mmHg 83%
    07:00 +6°C° 0 mm 1 m/s 749 mmHg 81%
    08:00 +7°C° 0 mm 2 m/s 749 mmHg 75%
    09:00 +8°C° 0 mm 2 m/s 749 mmHg 69%
    10:00 +10°C° 0 mm 3 m/s 749 mmHg 63%
    11:00 +11°C° 0 mm 3 m/s 749 mmHg 58%
    12:00 +11°C° 0 mm 3 m/s 749 mmHg 53%
    13:00 +12°C° 0 mm 3 m/s 748 mmHg 48%
    14:00 +13°C° 0 mm 3 m/s 748 mmHg 48%
    15:00 +13°C° 0 mm 3 m/s 748 mmHg 47%
    16:00 +14°C° 0 mm 2 m/s 747 mmHg 46%
    17:00 +12°C° 0 mm 2 m/s 747 mmHg 51%
    18:00 +11°C° 0 mm 1 m/s 747 mmHg 57%
    19:00 +9°C° 0 mm 1 m/s 747 mmHg 62%
    20:00 +9°C° 0 mm 1 m/s 747 mmHg 65%
    21:00 +8°C° 0 mm 1 m/s 747 mmHg 68%
    22:00 +8°C° 0 mm 1 m/s 748 mmHg 70%
    23:00 +7°C° 0 mm 1 m/s 748 mmHg 74%
    Mostrar mais